When you browse on this site, cookies collect data to enhance your experience and personalize the content and advertising you see.
Visit our Privacy Policy to learn more. By continuing to use the site, you agree to this use of cookies and data.
  • In Lithuania
  • List of Countries
  • For 7 days
  • Water Temperature
  • Satellite Maps
  • Weather Map
  • Weather Widgets
  • user-avatar
    Login

    Hourly Weather Soldatskaya

    Today, 17 January, Thursday

    Time Temperature Precipitation Wind Pressure Humidity
    00:00 -1°C° 0.1 mm 2 mps 734 mmHg 81%
    01:00 -2°C° 0 mm 2 mps 734 mmHg 83%
    02:00 -2°C° 0 mm 2 mps 734 mmHg 84%
    03:00 -2°C° 0 mm 2 mps 735 mmHg 85%
    04:00 -2°C° 0 mm 2 mps 735 mmHg 85%
    05:00 -2°C° 0 mm 2 mps 735 mmHg 85%
    06:00 -3°C° 0 mm 2 mps 736 mmHg 85%
    07:00 -3°C° 0 mm 2 mps 736 mmHg 84%
    08:00 -3°C° 0 mm 2 mps 737 mmHg 83%
    09:00 -3°C° 0 mm 2 mps 737 mmHg 82%
    10:00 0°C° 0 mm 1 mps 737 mmHg 79%
    11:00 +1°C° 0 mm 1 mps 738 mmHg 76%
    12:00 +1°C° 0 mm 1 mps 738 mmHg 73%
    13:00 +1°C° 0 mm 1 mps 738 mmHg 72%
    14:00 +1°C° 0 mm 1 mps 739 mmHg 71%
    15:00 +2°C° 0 mm 1 mps 739 mmHg 71%
    16:00 +1°C° 0 mm 1 mps 740 mmHg 75%
    17:00 0°C° 0 mm 1 mps 740 mmHg 80%
    18:00 0°C° 0 mm 1 mps 741 mmHg 84%
    19:00 0°C° 0 mm 1 mps 741 mmHg 86%
    20:00 -1°C° 0 mm 1 mps 742 mmHg 88%
    21:00 -1°C° 0 mm 1 mps 742 mmHg 90%
    22:00 -1°C° 0 mm 1 mps 742 mmHg 89%
    23:00 -1°C° 0 mm 1 mps 742 mmHg 89%

    Tomorrow, 18 January, Friday

    Time Temperature Precipitation Wind Pressure Humidity
    00:00 -2°C° 0 mm 0 mps 742 mmHg 88%
    01:00 -2°C° 0 mm 0 mps 743 mmHg 86%
    02:00 -2°C° 0 mm 0 mps 743 mmHg 85%
    03:00 -2°C° 0 mm 0 mps 743 mmHg 83%
    04:00 -1°C° 0 mm 1 mps 743 mmHg 83%
    05:00 -1°C° 0 mm 1 mps 743 mmHg 82%
    06:00 -1°C° 0 mm 1 mps 744 mmHg 82%
    07:00 -1°C° 0 mm 1 mps 744 mmHg 78%
    08:00 0°C° 0 mm 1 mps 744 mmHg 73%
    09:00 0°C° 0 mm 0 mps 744 mmHg 69%
    10:00 +2°C° 0 mm 1 mps 744 mmHg 63%
    11:00 +3°C° 0 mm 1 mps 743 mmHg 56%
    12:00 +5°C° 0 mm 1 mps 743 mmHg 49%
    13:00 +5°C° 0 mm 1 mps 743 mmHg 50%
    14:00 +5°C° 0 mm 1 mps 743 mmHg 50%
    15:00 +4°C° 0 mm 0 mps 743 mmHg 50%
    16:00 +4°C° 0 mm 1 mps 743 mmHg 56%
    17:00 +2°C° 0 mm 1 mps 743 mmHg 62%
    18:00 +1°C° 0 mm 1 mps 743 mmHg 68%
    19:00 +1°C° 0 mm 1 mps 743 mmHg 69%
    20:00 0°C° 0 mm 1 mps 743 mmHg 70%
    21:00 0°C° 0 mm 1 mps 743 mmHg 71%
    22:00 0°C° 0 mm 1 mps 743 mmHg 70%
    23:00 0°C° 0 mm 1 mps 743 mmHg 69%

    Day after tomorrow, 19 January, Saturday

    Time Temperature Precipitation Wind Pressure Humidity
    00:00 0°C° 0 mm 1 mps 743 mmHg 69%
    01:00 0°C° 0 mm 1 mps 743 mmHg 67%
    02:00 0°C° 0 mm 1 mps 743 mmHg 66%
    03:00 0°C° 0 mm 1 mps 743 mmHg 65%
    04:00 0°C° 0 mm 1 mps 742 mmHg 63%
    05:00 0°C° 0 mm 1 mps 742 mmHg 62%
    06:00 0°C° 0 mm 1 mps 742 mmHg 61%
    07:00 0°C° 0 mm 1 mps 742 mmHg 58%
    08:00 +1°C° 0 mm 1 mps 742 mmHg 55%
    09:00 +1°C° 0 mm 1 mps 742 mmHg 53%
    10:00 +3°C° 0 mm 1 mps 741 mmHg 47%
    11:00 +4°C° 0 mm 1 mps 741 mmHg 42%
    12:00 +5°C° 0 mm 1 mps 741 mmHg 37%
    13:00 +6°C° 0 mm 1 mps 741 mmHg 38%
    14:00 +6°C° 0 mm 1 mps 740 mmHg 39%
    15:00 +5°C° 0 mm 0 mps 740 mmHg 40%
    16:00 +5°C° 0 mm 1 mps 741 mmHg 44%
    17:00 +3°C° 0 mm 1 mps 741 mmHg 47%
    18:00 +2°C° 0 mm 1 mps 741 mmHg 51%
    19:00 +2°C° 0 mm 1 mps 741 mmHg 50%
    20:00 +2°C° 0 mm 1 mps 741 mmHg 48%
    21:00 +2°C° 0 mm 1 mps 742 mmHg 47%
    22:00 +3°C° 0 mm 1 mps 742 mmHg 46%
    23:00 +3°C° 0 mm 1 mps 742 mmHg 44%

    20 January, Sunday

    Time Temperature Precipitation Wind Pressure Humidity
    00:00 +3°C° 0 mm 1 mps 742 mmHg 43%
    01:00 +3°C° 0 mm 1 mps 742 mmHg 42%
    02:00 +3°C° 0 mm 1 mps 742 mmHg 41%
    03:00 +3°C° 0 mm 1 mps 742 mmHg 40%
    04:00 +3°C° 0 mm 1 mps 742 mmHg 39%
    05:00 +3°C° 0 mm 1 mps 742 mmHg 39%
    06:00 +3°C° 0 mm 1 mps 742 mmHg 38%
    07:00 +3°C° 0 mm 1 mps 742 mmHg 39%
    08:00 +2°C° 0 mm 2 mps 743 mmHg 40%
    09:00 +2°C° 0 mm 2 mps 743 mmHg 41%
    10:00 +4°C° 0 mm 1 mps 743 mmHg 42%
    11:00 +6°C° 0 mm 1 mps 743 mmHg 44%
    12:00 +7°C° 0 mm 1 mps 743 mmHg 45%
    13:00 +7°C° 0 mm 1 mps 743 mmHg 50%
    14:00 +7°C° 0 mm 1 mps 742 mmHg 54%
    15:00 +7°C° 0 mm 1 mps 742 mmHg 59%
    16:00 +6°C° 0 mm 1 mps 743 mmHg 66%
    17:00 +5°C° 0 mm 1 mps 743 mmHg 73%
    18:00 +4°C° 0 mm 1 mps 744 mmHg 81%
    19:00 +3°C° 0 mm 1 mps 744 mmHg 83%
    20:00 +3°C° 0 mm 1 mps 744 mmHg 86%
    21:00 +2°C° 0 mm 1 mps 744 mmHg 88%
    22:00 +2°C° 0 mm 1 mps 744 mmHg 90%
    23:00 +2°C° 0 mm 1 mps 744 mmHg 91%

    21 January, Monday

    Time Temperature Precipitation Wind Pressure Humidity
    00:00 +2°C° 0 mm 1 mps 744 mmHg 93%
    01:00 +1°C° 0 mm 1 mps 744 mmHg 94%
    02:00 +1°C° 0 mm 1 mps 743 mmHg 94%
    03:00 +1°C° 0 mm 1 mps 743 mmHg 95%
    04:00 -1°C° 0 mm 2 mps 743 mmHg 95%
    05:00 -1°C° 0 mm 2 mps 743 mmHg 95%
    06:00 -1°C° 0 mm 2 mps 743 mmHg 95%
    07:00 -1°C° 0 mm 2 mps 743 mmHg 93%
    08:00 -1°C° 0 mm 2 mps 742 mmHg 91%
    09:00 -1°C° 0 mm 2 mps 742 mmHg 89%
    10:00 +1°C° 0 mm 2 mps 742 mmHg 83%
    11:00 +1°C° 0 mm 3 mps 741 mmHg 76%
    12:00 +1°C° 0 mm 3 mps 740 mmHg 70%
    13:00 +2°C° 0 mm 3 mps 740 mmHg 70%
    14:00 +2°C° 0 mm 3 mps 739 mmHg 70%
    15:00 +3°C° 0 mm 2 mps 739 mmHg 70%
    16:00 +2°C° 0 mm 2 mps 739 mmHg 76%
    17:00 +2°C° 0 mm 1 mps 739 mmHg 83%
    18:00 +1°C° 0 mm 1 mps 739 mmHg 89%
    19:00 +1°C° 0 mm 1 mps 739 mmHg 89%
    20:00 +1°C° 0 mm 1 mps 739 mmHg 88%
    21:00 0°C° 0 mm 0 mps 739 mmHg 88%
    22:00 0°C° 0 mm 0 mps 739 mmHg 85%
    23:00 0°C° 0 mm 0 mps 739 mmHg 82%

    22 January, Tuesday

    Time Temperature Precipitation Wind Pressure Humidity
    00:00 +1°C° 0 mm 0 mps 739 mmHg 79%
    01:00 +1°C° 0 mm 0 mps 739 mmHg 75%
    02:00 +1°C° 0 mm 0 mps 739 mmHg 70%
    03:00 +1°C° 0 mm 0 mps 739 mmHg 66%
    04:00 +2°C° 0 mm 1 mps 739 mmHg 64%
    05:00 +2°C° 0 mm 1 mps 739 mmHg 63%
    06:00 +1°C° 0 mm 2 mps 739 mmHg 61%
    07:00 +2°C° 0 mm 2 mps 740 mmHg 62%
    08:00 +3°C° 0 mm 1 mps 740 mmHg 63%
    09:00 +3°C° 0 mm 1 mps 741 mmHg 63%
    10:00 +4°C° 0 mm 1 mps 741 mmHg 64%
    11:00 +5°C° 0 mm 1 mps 741 mmHg 65%
    12:00 +5°C° 0 mm 2 mps 742 mmHg 66%
    13:00 +5°C° 0.1 mm 2 mps 742 mmHg 71%
    14:00 +4°C° 0.1 mm 2 mps 742 mmHg 75%
    15:00 +4°C° 0.1 mm 2 mps 742 mmHg 80%
    16:00 +3°C° 0.4 mm 2 mps 742 mmHg 84%
    17:00 +2°C° 0.4 mm 2 mps 743 mmHg 88%
    18:00 +3°C° 0.4 mm 1 mps 743 mmHg 93%
    19:00 +2°C° 0.4 mm 1 mps 743 mmHg 94%
    20:00 +1°C° 0.4 mm 2 mps 743 mmHg 95%
    21:00 +1°C° 0.4 mm 2 mps 744 mmHg 95%
    22:00 +1°C° 0.1 mm 2 mps 743 mmHg 95%
    23:00 -1°C° 0.1 mm 3 mps 743 mmHg 95%
    Show more